Regional Weather Roundup
Issued by NWS

Home | Current Version | Previous Version | Graphics & Text | Print | Product List | Glossary On
Versions: 1 2 3 4 5 6 7 8 9 10 11 12 13 14 15 16 17 18 19 20 21 22 23 24 25 26 27 28 29 30 31 32 33 34 35 36 37 38 39 40 41 42 43 44 45 46 47 48 49 50
000
ASUS43 KIND 290959
RWRIN

WEATHER ROUNDUP FOR INDIANA
NATIONAL WEATHER SERVICE INDIANAPOLIS IN
600 AM EDT FRI MAY 29 2015

NOTE: "FAIR" INDICATES FEW OR NO CLOUDS BELOW 12,000 FEET WITH NO
SIGNIFICANT WEATHER AND/OR OBSTRUCTIONS TO VISIBILITY.

* - STATION DOES NOT REPORT WEATHER SUCH AS PRECIPITATION OR FOG.

+ - STATION NOT QUALITY CONTROLLED BY THE NATIONAL WEATHER SERVICE.
    USE DATA WITH CAUTION...ESPECIALLY DEWPOINT AND RELATIVE
    HUMIDITY OBSERVATIONS.

INZ001>003-010>013-019-020-291100-
NORTHWEST INDIANA

CITY           SKY/WX    TMP DP  RH WIND       PRES   REMARKS
GARY /AIRPORT/ MOCLDY    68  64  88 SE8       30.05F
RENSSELAER +   MOCLDY    66  64  94 SE5       30.07S

$$

LMZ046-743>745-291100-
SOUTHERN LAKE MICHIGAN

STATION/POSITION TIME  TEMP    WIND        PRES    WAVE
                       AIR SEA DIR/SP/G            HT
                 (UTC) (F)     (DEG/KT/KT) (MB)    (FT)
BURNS HARBOR     0900   71     170/  7/ 12 1018.3F
MICHIGAN CITY    0900   70     130/  9/ 11   N/A
5NW MICH CITY    0900   63 55  150/  2/  4   N/A     0

$$

INZ004-005-014>016-021>024-291100-
NORTH CENTRAL INDIANA

CITY           SKY/WX    TMP DP  RH WIND       PRES   REMARKS
GOSHEN         PTCLDY    61  58  90 SE3       30.11S
PERU/GRISSOM   PTCLDY    64  62  92 SE6       30.09S
SOUTH BEND     PTCLDY    65  60  84 SE7       30.09F

$$

INZ006>009-017-018-025>027-291100-
NORTHEAST INDIANA

CITY           SKY/WX    TMP DP  RH WIND       PRES   REMARKS
ANGOLA *+      CLEAR     61  50  67 CALM      30.13F
FORT WAYNE     PTCLDY    60  59  96 CALM      30.13S

$$

INZ028-029-035-036-043>045-051>053-291100-
WEST CENTRAL INDIANA

CITY           SKY/WX    TMP DP  RH WIND       PRES   REMARKS
CRAWFORDSVL +  PTCLDY    63  58  84 SE6       30.08F
GREENCASTLE +  CLEAR     63  59  88 CALM      30.10S
LAFAYETTE      MOCLDY    64  62  93 SE5       30.07S
TERRE HAUTE    CLEAR     64  61  90 E5        30.07F

$$

INZ030>032-037>040-046>048-054>057-064-065-291100-
CENTRAL INDIANA

CITY           SKY/WX    TMP DP  RH WIND       PRES   REMARKS
GREENWOOD *+   CLEAR     66  63  88 SE5       30.11S
INDIANAPOLIS   MOCLDY    65  62  90 SE7       30.09R
-EAGLE CREEK   PTCLDY    65  63  93 SE3       30.10S
KOKOMO *+      PTCLDY    64  61  88 S6        30.10S
MT COMFORT *+  CLEAR     64 N/A N/A SE5       30.12S
SHELBYVILLE    CLEAR     64  61  90 E6        30.11R

$$

INZ033-034-041-042-049-050-058-059-291100-
EAST CENTRAL INDIANA

CITY           SKY/WX    TMP DP  RH WIND       PRES   REMARKS
MUNCIE         CLEAR     66  63  90 SE5       30.12F

$$

INZ060-061-067>069-081>083-085>088-291100-
SOUTHWEST INDIANA

CITY           SKY/WX    TMP DP  RH WIND       PRES   REMARKS
EVANSVILLE     CLEAR     66  64  93 E3        30.06R
HUNTINGBURG *+ CLEAR     66  61  82 SE7       30.08S

$$

INZ062-063-066-070>080-084-089>092-291100-
SOUTH CENTRAL AND SOUTHEAST INDIANA

CITY           SKY/WX    TMP DP  RH WIND       PRES   REMARKS
BLOOMINGTON    CLEAR     62  61  96 CALM      30.10R FOG
MADISON *+     PTCLDY    66  63  88 SE5       30.14S
SEYMOUR +      CLEAR     64  63  94 CALM      30.11

$$




USA.gov is the U.S. government's official web portal to all federal, state and local government web resources and services.